Regional Weather Roundup
Issued by NWS

Home | Current Version | Previous Version | Text Only | Print | Product List | Glossary On
Versions: 1 2 3 4 5 6 7 8 9 10 11 12 13 14 15 16 17 18 19 20 21 22 23 24 25 26 27 28 29 30 31 32 33 34 35 36 37 38 39 40 41 42 43 44 45 46 47 48 49 50
000
ASUS43 KDTX 222110
RWRMI
MICHIGAN HOURLY REGIONAL WEATHER ROUNDUP
NATIONAL WEATHER SERVICE DETROIT/PONTIAC MI
500 PM EDT MON SEP 22 2014

NOTE: "FAIR" INDICATES FEW OR NO CLOUDS BELOW 12,000 FEET WITH NO
SIGNIFICANT WEATHER AND/OR OBSTRUCTION TO VISIBILITY.

MIZ047>049-052>055-059>063-066>070-074>076-081>083-222200-
SOUTHEAST LOWER MICHIGAN

CITY           SKY/WX    TMP DP  RH WIND       PRES   REMARKS
ADRIAN         SUNNY     63  40  42 NW9       30.21S
ALMA           PTSUNNY   62  43  50 W8        30.19S
ANN ARBOR      SUNNY     62  41  46 W9        30.19S
BAD AXE        SUNNY     59  45  59 W12G17    30.17S
CARO           SUNNY     62  45  53 W9        30.17S
DETROIT CITY   SUNNY     63  39  41 W6        30.19S
DETROIT        MOSUNNY   62  41  46 NW12      30.20S
FLINT          SUNNY     64  43  46 W12       30.18F
GROSSE ILE     SUNNY     63  43  48 NW7       30.18S
HILLSDALE      SUNNY     63  40  43 NW10      30.21S
HOWELL         SUNNY     60  42  51 W7G16     30.19F

CITY           SKY/WX    TMP DP  RH WIND       PRES   REMARKS
JACKSON        SUNNY     62  42  47 NW5       30.20F
LAMBERTVILLE   SUNNY     63  41  45 N8        30.20S
LANSING        SUNNY     63  42  46 NW12      30.21S
LAPEER         FAIR      59  40  49 NW8       30.18F
MASON          MOSUNNY   61  44  53 NW9       30.21S
MONROE         SUNNY     63  41  45 NW9       30.18S
MT. CLEMENS    MOSUNNY   61  39  44 W6        30.16S
PONTIAC        SUNNY     60  40  47 W15       30.18S
PORT HOPE        N/A     60  42  51 SW9       30.15
PORT HURON     MOSUNNY   59  43  55 W6        30.18S
TRI CITIES     MOSUNNY   63  45  51 W13       30.18F
TROY           SUNNY     63  38  39 W7        30.20S
SAGINAW HB     SUNNY     63  43  48 W12       30.17S
$$
MIZ043>046-050>051-056>058-064>065-071>073-077>080-222200-
SOUTHWEST LOWER MICHIGAN

CITY           SKY/WX    TMP DP  RH WIND       PRES   REMARKS
BATTLE CREEK   SUNNY     63  44  50 NW12      30.22F
BENTON HARBOR  MOSUNNY   58  48  69 W8        30.25F
BIG RAPIDS     MOSUNNY   63  47  55 NW8G16    30.18F
COLDWATER      SUNNY     64  43  45 NW7       30.21S
FREMONT        FAIR      62  43  51 W12       30.21S
HOLLAND        SUNNY     61  47  59 W12       30.25S
GRAND RAPIDS   PTSUNNY   63  47  55 W13       30.22S
IONIA          MOCLDY    64  44  49 NW14      30.20S
KALAMAZOO      MOSUNNY   63  45  51 NW14      30.23S
LUDINGTON      SUNNY     59  52  75 SW13      30.21F
MARSHALL       MOSUNNY   62  43  49 NW6       30.21S
MOUNT PLEASANT CLOUDY    64  46  50 W8        30.17F
MUSKEGON       MOSUNNY   60  46  59 W9        30.23F
SOUTH HAVEN    SUNNY     60  48  65 W9        30.25S
$$
MIZ016>042-222200-
NORTHERN LOWER MICHIGAN

CITY           SKY/WX    TMP DP  RH WIND       PRES   REMARKS
ALPENA         MOSUNNY   61  45  55 W6        30.12S
BEAVER ISLAND  MOSUNNY   61  53  73 SW13      30.14R
BELLAIRE       SUNNY     64  46  52 W3        30.16R
CADILLAC       MOSUNNY   60  46  58 W13       30.17S
CHARLEVOIX     SUNNY     60  50  68 W20       30.17S
FRANKFORT      SUNNY     59  49  69 SW6       30.18S
GAYLORD        MOSUNNY   59  44  57 W12G18    30.15R
GRAYLING       MOSUNNY   62  44  51 W9        30.16S
HARBOR SPRINGS SUNNY     60  51  69 W9G20     30.14S
HOUGHTON LAKE  PTSUNNY   62  45  53 W12       30.16S
MANISTEE       SUNNY     61  45  55 W15       30.20S
OSCODA         CLOUDY    62  46  55 W5        30.13S
PELLSTON       SUNNY     60  50  69 W9G17     30.13S
ROGERS CITY    SUNNY     61  48  63 W9G18     30.13
TRAVERSE CITY  MOSUNNY   64  43  46 W14G20    30.15S
$$
MIZ007>008-015-222200-
EASTERN UPPER MICHIGAN

CITY           SKY/WX    TMP DP  RH WIND       PRES   REMARKS
KINROSS        CLOUDY    59  52  77 SW6       30.09S
MACKINAC ISLAN MOSUNNY   58  52  79 W15G23    30.11S
NEWBERRY       MOSUNNY   64  46  53 W16       30.10S
S. S. MARIE    CLOUDY    59  47  64 W12       30.08F
MUNISING         N/A     66  48  52 N5        30.09F
$$
MIZ004>006-011>014-085-222200-
CENTRAL UPPER MICHIGAN

CITY           SKY/WX    TMP DP  RH WIND       PRES   REMARKS
MANISTIQUE     MOSUNNY   61  54  76 S9G17     30.10S
ESCANABA       MOSUNNY   70  46  43 W13       30.10S
MENOMINEE      MOSUNNY   66  48  52 W7        30.12F
SAWYER-GWINN   SUNNY     68  45  42 W8        30.10S
$$
MIZ001>003-009>011-084-222200-
WESTERN UPPER MICHIGAN

CITY           SKY/WX    TMP DP  RH WIND       PRES   REMARKS
IRON MOUNTAIN  MOSUNNY   68  47  46 W9        30.12S
HOUGHTON       SUNNY     64  48  56 W20G25    30.07F
COPPER HARBOR    N/A     66  49  54 NW10G17   30.03F
IRONWOOD       SUNNY     66  50  55 W14       30.10F
$$

ABBREVIATIONS USED IN REMARKS
   TC - TEMPERATURE IN CELSIUS
  WCI - WIND CHILL INDEX
   HX - HEAT INDEX
  VSB - VISIBILITY




USA.gov is the U.S. government's official web portal to all federal, state and local government web resources and services.